Regional Weather Roundup
Issued by NWS

Home | Current Version | Previous Version | Text Only | Print | Product List | Glossary On
Versions: 1 2 3 4 5 6 7 8 9 10 11 12 13 14 15 16 17 18 19 20 21 22 23 24 25 26 27 28 29 30 31 32 33 34 35 36 37 38 39 40 41 42 43 44 45 46 47 48 49 50
000
ASUS43 KLOT 281903
RWRIL

ILLINOIS REGIONAL WEATHER ROUNDUP
NATIONAL WEATHER SERVICE CHICAGO/ROMEOVILLE IL
200 PM CDT THU JUL 28 2016

NOTE: "FAIR" INDICATES FEW OR NO CLOUDS BELOW 12,000 FEET WITH NO
SIGNIFICANT WEATHER AND/OR OBSTRUCTIONS TO VISIBILITY.

* THESE STATIONS ARE NOT UNDER NWS QUALITY CONTROL. THEY ALSO MAY NOT
  REPORT WEATHER SUCH AS PRECIPITATION OR FOG.

ILZ001-002-007-009-015-016-024-282000-
NORTHWEST ILLINOIS

CITY           SKY/WX    TMP DP  RH WIND       PRES   REMARKS
MOLINE         MOSUNNY   85  68  56 W14       29.86F HX  88
STERLING*      CLOUDY    86  71  60 W13       29.87F HX  91
SAVANNA*       CLOUDY    78  71  77 SE6       29.86F HX  81
$$

ILZ003-004-008-010-011-017-018-282000-
NORTH CENTRAL ILLINOIS

CITY           SKY/WX    TMP DP  RH WIND       PRES   REMARKS
ROCKFORD       TSTM      74  65  73 E6        29.92R
FREEPORT*      PTSUNNY   83  70  64 W12       29.89F HX  87
ROCHELLE*      TSTM      74  70  88 N7        29.89S
DE KALB*       CLOUDY    81  73  76 S6        29.89S HX  86
$$

ILZ005-006-012>014-019>023-282000-
NORTHEAST ILLINOIS

CITY           SKY/WX    TMP DP  RH WIND       PRES   REMARKS
CHICAGO-OHARE  LGT RAIN  74  70  87 N7        29.89S FOG
CHICAGO-MIDWAY CLOUDY    82  68  62 NE6       29.87S HX  85
AURORA         MOSUNNY   86  71  60 S10       29.87F HX  91
LANSING*       PTSUNNY   85  67  53 S8        29.87F HX  88
WAUKEGAN       MOSUNNY   80  68  66 E10       29.88F HX  83
DUPAGE AIRPORT CLOUDY    77  67  71 NE12      29.88R THUNDER
KANKAKEE*      MOSUNNY   86  70  59 S5        29.88F HX  90
WHEELING       TSTM      76  69  79 E5        29.90R
MORRIS*        MOSUNNY   85  71  63 S5        29.85F HX  90
NORTHERLY ISL    N/A     78  70  76 N8          N/A  HX  80
$$

LMZ740>746-282000-
SOUTHERN LAKE MICHIGAN

STATION/POSITION SKY/WX   TEMP    WIND        PRES    VSBY  WAVE
                          AIR SEA DIR/SP/G                  HT/PER
                          (F)     (DEG/KT/KT) (MB)    (MI)  (FT/S)
SOUTHERN BUOY              75 77   80/  4/  4 1012.0          1/ 4
WILMETTE HARBOR            75 71   70/  4/  4   N/A           1/ 3
HARRISON CRIB              76      40/  6/  6   N/A
BURNHAM HARBOR             77      10/  6/  7   N/A
CALUMET HARBOR             79      40/  7/  8 1011.3F
BURNS HARBOR               79      30/  8/  8 1012.2F
MICHIGAN CITY              79     350/  7/  8   N/A
MICHIGAN CITY 6N           79 80  360/  6/  8   N/A           1
ST. JOSEPH                 77 78  360/  8/  8 1011.7F         0
$$

ILZ025>027-034>036-040-047-049-050-058-095>099-282000-
WEST-CENTRAL ILLINOIS

CITY           SKY/WX    TMP DP  RH WIND       PRES   REMARKS
QUINCY         SUNNY     85  70  60 NW5       29.91F HX  89
MACOMB*        PTSUNNY   81  71  71 NW15      29.93R HX  84
JACKSONVILLE*  MOSUNNY   84  73  69 NW8       29.89F HX  90
PITTSFIELD*    MOSUNNY   86  71  60 W5        29.92F HX  91
$$

ILZ028>032-037-038-041>044-048-051>054-059>061-282000-
CENTRAL ILLINOIS

CITY           SKY/WX    TMP DP  RH WIND       PRES   REMARKS
PONTIAC        PTSUNNY   84  75  73 SE3       29.88F HAZE    HX  92
BLOOMINGTON    LGT RAIN  83  73  72 SE6       29.89F HX  89
DECATUR        CLOUDY    83  73  72 SW8       29.88F HX  89
PEORIA         CLOUDY    86  71  60 W9        29.87F HX  91
LACON*         LGT RAIN  73  68  84 CALM      29.86F
SPRINGFIELD    MOSUNNY   89  74  60 VRB3      29.88S HX  98
TAYLORVILLE    MOSUNNY   84  74  72 MISG      29.88S HX  92
$$

ILZ033-039-045-046-055>057-062-063-282000-
EAST-CENTRAL ILLINOIS

CITY           SKY/WX    TMP DP  RH WIND       PRES   REMARKS
CHAMPAIGN      PTSUNNY   83  73  72 SE6       29.89F HX  89
MATTOON        MOSUNNY   81  70  69 CALM      29.88F HX  84
PARIS*         CLOUDY    83  76  79 CALM      29.89F HX  90
$$

ILZ079-100>102-282000-
SOUTHWEST ILLINOIS

CITY           SKY/WX    TMP DP  RH WIND       PRES   REMARKS
ALTON          MOSUNNY   86  75  70 N12       29.89  HX  95
BELLEVILLE     DRIZZLE   89  73  58 NW8       29.86F HX  96
CAHOKIA*       PTSUNNY   91  68  46 NW9       29.87F HX  95
SPARTA*        MOSUNNY   86  76  70 SW6       29.89F HX  96
$$

ILZ064>066-069>071-074>076-080>082-084>086-088>090-092>094-282000-
SOUTH-CENTRAL ILLINOIS

CITY           SKY/WX    TMP DP  RH WIND       PRES   REMARKS
CARBONDALE     PTSUNNY   88  74  63 S8        29.89F HX  96
CAIRO*         MOSUNNY   85  77  77 S7        29.90F HX  95
EFFINGHAM*     MOSUNNY   84  76  78 S5        29.90S HX  92
MARION         PTSUNNY   86  75  70 SW8       29.90F HX  95
MT. VERNON     MOSUNNY   90  73  58 MISG      29.87F HX  98
CENTRALIA*     PTSUNNY   78  71  80 E7        29.88F HX  80
SALEM*         PTSUNNY   87  76  69 S6        29.88F HX  97
METROPOLIS*    MOSUNNY   86  76  72 W5        29.91F HX  96
$$

ILZ067-068-072-073-078-083-087-091-282000-
SOUTHEAST ILLINOIS

CITY           SKY/WX    TMP DP  RH WIND       PRES   REMARKS
LAWRENCEVILLE  PTSUNNY   84  74  71 S7        29.88F HX  91
FLORA*         LGT RAIN  83  73  71 E5        29.88F HX  89
FAIRFIELD*     PTSUNNY   83  75  76 CALM      29.88F HX  91
HARRISBURG*    PTSUNNY   85  77  76 S3        29.89F HX  96
ROBINSON*      MOSUNNY   83  75  77 SW6       29.88F HX  90
CARMI*         PTSUNNY   83  76  79 W3        29.89F HX  92
$$

ABBREVIATIONS USED IN REMARKS
   TC - TEMPERATURE IN CELSIUS
  WCI - WIND CHILL INDEX
   HX - HEAT INDEX
  VSB - VISIBILITY
$$





USA.gov is the U.S. government's official web portal to all federal, state and local government web resources and services.